Regional Weather Roundup
Issued by NWS

Home | Current Version | Previous Version | Graphics & Text | Print | Product List | Glossary On
Versions: 1 2 3 4 5 6 7 8 9 10 11 12 13 14 15 16 17 18 19 20 21 22 23 24 25 26 27 28 29 30 31 32 33 34 35 36 37 38 39 40 41 42 43 44 45 46 47 48 49
000
ASUS45 KSLC 211310
RWRUT

UTAH REGIONAL WEATHER ROUNDUP
NATIONAL WEATHER SERVICE SALT LAKE CITY UT
700 AM MDT TUE OCT 21 2014

UTZ001>011-023>025-211400-

NORTHERN UTAH

CITY           SKY/WX    TMP DP  RH WIND       PRES   REMARKS
BRIGHAM CITY   MOCLDY    58  42  56 S23       29.86R
HILL AFB       MOCLDY    63  40  43 S18       29.88S
LOGAN          MOCLDY    50  43  77 VRB3      29.83F
OGDEN          MOCLDY    64  39  39 S21G31    29.85R
PROVO AIRPORT  PTCLDY    57  39  51 S5        29.94S
SALT LAKE CITY MOCLDY    64  39  39 S15       29.88R
VERNAL         PTCLDY    44  37  76 W3        30.03S
WENDOVER       CLEAR     61  32  33 W24G31    29.88R
HEBER CITY     LGT RAIN  50  41  71 NE5       29.98S
WEST JORDAN    CLEAR     61  45  55 S18       29.91R

$$

UTZ012>022-026-027-211400-

SOUTHERN/CENTRAL UTAH

CITY           SKY/WX    TMP DP  RH WIND       PRES   REMARKS
BLANDING       CLEAR     48  41  75 NE3       30.19S
BRYCE CANYON   MOCLDY    34  32  92 SW5       30.15S WCI  30
CEDAR CITY     CLEAR     51  39  63 S8        30.02R
DELTA          PTCLDY    55  38  54 S6        29.96R
HANKSVILLE       N/A     43  34  70 CALM      30.03R
MILFORD        PTCLDY    55  38  52 SW12      29.99R
MOAB/CYNLANDS  PTCLDY    60  41  49 S8        30.00R
PRICE          PTCLDY    46  35  65 N6        30.06R
ST GEORGE      CLOUDY    61  37  41 SW3       29.95R
KANAB            N/A     45  36  70 NE5       30.08S

$$

REGIONAL REPORTS     COLORADO/ARIZONA

CITY           SKY/WX    TMP DP  RH WIND       PRES   REMARKS
CRAIG, CO      MOCLDY    36  32  85 SW5       30.11S WCI  32
GRAND JUNCTION CLOUDY    56  37  49 E15       30.04S
RIFLE          CLOUDY    44  37  76 SW3       30.10S
MONTROSE       CLOUDY    52  37  56 E5        30.13S
CORTEZ         MOCLDY    52  42  69 W5        30.13S
PAGE, AZ       NOT AVBL
GRAND CANYON   CLEAR     30  27  88 CALM      30.15R
KINGMAN        CLEAR     60  43  53 SE9       29.96S
FLAGSTAFF      CLEAR     33  31  92 CALM      30.17R

$$

REGIONAL REPORTS    NEVADA/IDAHO/WYOMING

CITY           SKY/WX    TMP DP  RH WIND       PRES   REMARKS
LAS VEGAS, NV  PTCLDY    71  38  29 S12       29.84R
ELY            CLEAR     51  33  50 S13       30.01R
ELKO           CLOUDY    44  33  65 SW7       30.02R
POCATELLO, ID  LGT RAIN  50  42  74 SW17G28   29.90R
BURLEY         LGT RAIN  46  38  73 W32G48    29.95R
EVANSTON, WY   MOCLDY    46  36  68 SW14      30.04R
ROCK SPRINGS   PTCLDY    50  35  56 S5        30.03S
KEMMERER       PTCLDY    45  34  65 CALM      30.03S

$$



USA.gov is the U.S. government's official web portal to all federal, state and local government web resources and services.